EB2GLU-13 Weather Reports


time (UTC)temp
F
wind
direction
speed
knots
gust
knots
rain 1hr
in
rain 24hr
in
rain mn
in
humidity
%
barometer
mb
20260506040043 49 0 0.0 0.0 0.00 0.59 0.00 94 1013.0
20260506034814 49 0 0.0 0.0 0.00 0.60 0.00 94 1012.9
20260506033543 49 68 0.0 0.9 0.00 0.60 0.00 94 1013.0
20260506032313 49 68 0.0 0.9 0.00 0.60 0.00 94 1012.9
20260506031043 49 0 0.0 0.0 0.00 0.60 0.00 94 1013.0
20260506025813 49 0 0.0 0.0 0.00 0.60 0.00 94 1012.8
20260506024543 49 0 0.0 0.0 0.00 0.60 0.00 94 1013.1
20260506023313 49 0 0.0 0.0 0.00 0.61 0.00 93 1013.1
20260506022043 49 0 0.0 0.0 0.00 0.62 0.00 93 1013.2
20260506020813 49 0 0.0 0.0 0.00 0.63 0.00 93 1013.2
20260506015543 49 0 0.0 0.0 0.00 0.63 0.00 93 1013.4
20260506014313 49 0 0.0 0.0 0.00 0.63 0.00 93 1013.3
20260506013043 49 0 0.0 0.0 0.00 0.64 0.00 93 1013.4
20260506011813 50 0 0.0 0.0 0.00 0.64 0.00 93 1013.2
20260506010543 49 0 0.0 0.0 0.00 0.64 0.00 94 1013.3
20260506005313 49 0 0.0 0.0 0.00 0.66 0.00 94 1013.2
20260505235043 47 0 0.0 0.0 0.00 0.70 0.00 94 1013.9
20260505233813 48 0 0.0 0.0 0.00 0.70 0.00 94 1014.0
20260505232543 48 45 0.0 0.9 0.00 0.72 0.00 94 1013.8
20260505231313 48 0 0.0 0.0 0.00 0.72 0.00 94 1013.8
20260505230043 48 45 0.0 0.9 0.00 0.72 0.00 94 1013.7
20260505224813 49 0 0.0 0.0 0.00 0.72 0.00 93 1013.9
20260505223543 50 0 0.0 0.0 0.00 0.72 0.00 93 1013.9
20260505222313 50 0 0.0 0.0 0.00 0.72 0.00 93 1014.1
20260505221043 50 0 0.0 0.0 0.00 0.72 0.00 93 1014.4
20260505215813 50 0 0.0 0.0 0.00 0.72 0.72 93 1014.3
20260505214543 50 46 0.0 0.9 0.00 0.72 0.72 93 1014.2
20260505213313 50 45 0.0 0.9 0.00 0.72 0.72 93 1014.1
20260505212042 50 45 0.0 0.9 0.00 0.72 0.72 92 1014.2
20260505210813 51 0 0.0 0.0 0.00 0.72 0.72 92 1014.4
20260505205542 51 0 0.0 0.0 0.00 0.72 0.72 92 1014.3
20260505204312 52 46 0.0 0.9 0.00 0.72 0.72 92 1014.4
20260505203042 53 0 0.0 0.0 0.00 0.72 0.72 91 1014.1
20260505201813 53 45 0.0 0.9 0.00 0.72 0.72 91 1014.0
20260505200542 53 45 0.0 0.9 0.00 0.72 0.72 90 1013.7
20260505195312 54 45 0.0 0.9 0.00 0.72 0.72 91 1013.7
20260505194042 54 0 0.0 0.0 0.00 0.72 0.72 90 1013.5
20260505192812 54 46 0.0 0.9 0.00 0.72 0.72 89 1013.4
20260505191542 54 41 0.0 1.7 0.00 0.72 0.72 87 1013.4
20260505190312 55 0 0.0 0.0 0.00 0.72 0.72 85 1013.1
20260505185042 55 23 0.0 0.9 0.00 0.72 0.72 86 1013.3
20260505183812 56 23 0.0 0.9 0.00 0.72 0.72 85 1013.1
20260505182542 57 23 0.0 0.9 0.00 0.72 0.72 82 1013.3
20260505181312 58 0 0.0 0.0 0.00 0.72 0.72 82 1013.2
20260505180042 58 28 0.0 1.7 0.00 0.72 0.72 83 1013.1
20260505174812 59 0 0.0 0.0 0.00 0.72 0.72 81 1013.1
20260505173542 58 22 0.0 0.9 0.00 0.72 0.72 83 1013.1
20260505172312 60 0 0.0 0.0 0.00 0.72 0.72 79 1013.0
20260505171042 60 0 0.0 0.0 0.00 0.72 0.72 74 1013.3
20260505165812 60 23 0.0 2.6 0.00 0.72 0.72 77 1013.3
20260505164542 61 22 0.0 1.7 0.00 0.72 0.72 77 1013.3
20260505163312 61 135 0.0 0.9 0.00 0.72 0.72 80 1013.2
20260505162042 60 135 0.0 0.9 0.00 0.72 0.72 79 1013.2
20260505160812 59 135 0.0 0.9 0.00 0.72 0.72 79 1013.1